Time,TemperatureF,DewpointF,PressureIn,WindDirection,WindDirectionDegrees,WindSpeedMPH,WindSpeedGustMPH,Humidity,HourlyPrecipIn,Conditions,Clouds,dailyrainin,SoftwareType,DateUTC
2013-06-24 00:01:00,66.4,50.2,29.49,South,172,0.0,0.0,56,0.00,,-RA,0.00,VWS V14.01,2013-06-24 07:01:00,
2013-06-24 00:07:00,66.4,50.2,29.49,South,172,0.0,0.0,56,0.00,,-RA,0.00,VWS V14.01,2013-06-24 07:07:00,
2013-06-24 00:12:00,66.4,50.2,29.49,South,172,0.0,0.0,56,0.00,,-RA,0.00,VWS V14.01,2013-06-24 07:12:00,
2013-06-24 00:17:00,66.4,50.2,29.49,South,172,0.0,0.0,56,0.00,,-RA,0.00,VWS V14.01,2013-06-24 07:17:00,
2013-06-24 00:22:00,66.4,50.2,29.49,South,172,0.0,0.0,56,0.00,,-RA,0.00,VWS V14.01,2013-06-24 07:22:00,
2013-06-24 00:27:00,66.4,50.2,29.49,South,172,0.0,0.0,56,0.00,,-RA,0.00,VWS V14.01,2013-06-24 07:27:00,
2013-06-24 00:32:00,66.4,50.2,29.48,South,172,0.0,0.0,56,0.00,,-RA,0.00,VWS V14.01,2013-06-24 07:32:00,
2013-06-24 00:37:00,66.4,50.2,29.48,South,172,0.0,0.0,56,0.00,,OVC070,0.00,VWS V14.01,2013-06-24 07:37:00,
2013-06-24 00:42:00,66.4,50.2,29.48,South,172,0.0,0.0,56,0.00,,OVC070,0.00,VWS V14.01,2013-06-24 07:42:00,
2013-06-24 00:48:00,66.4,50.2,29.47,South,172,0.0,0.0,56,0.00,,OVC070,0.00,VWS V14.01,2013-06-24 07:48:00,
2013-06-24 00:53:00,66.4,50.2,29.47,South,172,0.0,0.0,56,0.00,,OVC070,0.00,VWS V14.01,2013-06-24 07:53:00,
2013-06-24 00:58:00,66.4,50.2,29.47,South,172,0.0,0.0,56,0.00,,OVC070,0.00,VWS V14.01,2013-06-24 07:58:00,
2013-06-24 01:03:00,66.4,50.2,29.47,South,172,0.0,0.0,56,0.00,,OVC070,0.00,VWS V14.01,2013-06-24 08:03:00,
2013-06-24 01:09:00,66.4,50.2,29.47,South,172,0.0,0.0,56,0.00,,OVC070,0.00,VWS V14.01,2013-06-24 08:09:00,
2013-06-24 01:14:00,66.4,50.2,29.47,South,172,0.0,0.0,56,0.00,,OVC070,0.00,VWS V14.01,2013-06-24 08:14:00,
2013-06-24 01:19:00,66.4,50.2,29.47,South,172,0.0,0.0,56,0.00,,OVC070,0.00,VWS V14.01,2013-06-24 08:19:00,
2013-06-24 01:24:00,66.4,50.2,29.47,South,172,0.0,0.0,56,0.00,,OVC070,0.00,VWS V14.01,2013-06-24 08:24:00,
2013-06-24 01:29:00,66.4,50.2,29.46,South,172,0.0,0.0,56,0.00,,OVC070,0.00,VWS V14.01,2013-06-24 08:29:00,
2013-06-24 01:34:00,66.4,50.2,29.46,South,172,0.0,0.0,56,0.00,,OVC070,0.00,VWS V14.01,2013-06-24 08:34:00,
2013-06-24 01:40:00,66.4,50.2,29.46,South,172,0.0,0.0,56,0.00,,OVC070,0.00,VWS V14.01,2013-06-24 08:40:00,
2013-06-24 01:45:00,66.4,50.2,29.47,South,172,0.0,0.0,56,0.00,,OVC070,0.00,VWS V14.01,2013-06-24 08:45:00,
2013-06-24 01:50:00,66.4,50.2,29.47,South,172,0.0,0.0,56,0.00,,OVC070,0.00,VWS V14.01,2013-06-24 08:50:00,
2013-06-24 01:55:00,66.4,50.2,29.47,South,172,0.0,0.0,56,0.00,,OVC070,0.00,VWS V14.01,2013-06-24 08:55:00,
2013-06-24 02:00:00,66.4,50.2,29.46,South,172,0.0,0.0,56,0.00,,OVC070,0.00,VWS V14.01,2013-06-24 09:00:00,
2013-06-24 02:05:00,66.4,50.2,29.46,South,172,0.0,0.0,56,0.00,,OVC070,0.00,VWS V14.01,2013-06-24 09:05:00,
2013-06-24 02:10:00,66.4,50.2,29.46,South,172,0.0,0.0,56,0.00,,OVC070,0.00,VWS V14.01,2013-06-24 09:10:00,
2013-06-24 02:15:00,66.4,50.2,29.38,South,172,0.0,0.0,56,0.00,,OVC070,0.00,VWS V14.01,2013-06-24 09:15:00,
2013-06-24 02:20:00,66.4,50.2,29.38,South,172,0.0,0.0,56,0.00,,OVC070,0.00,VWS V14.01,2013-06-24 09:20:00,
2013-06-24 02:25:00,66.4,50.2,29.38,South,172,0.0,0.0,56,0.00,,OVC070,0.00,VWS V14.01,2013-06-24 09:25:00,
2013-06-24 02:30:00,66.4,50.2,29.39,South,172,0.0,0.0,56,0.00,,OVC070,0.00,VWS V14.01,2013-06-24 09:30:00,
2013-06-24 02:36:00,66.4,50.2,29.39,South,172,0.0,0.0,56,0.00,,-RA,0.00,VWS V14.01,2013-06-24 09:36:00,
2013-06-24 02:41:00,66.4,50.2,29.39,South,172,0.0,0.0,56,0.00,,-RA,0.00,VWS V14.01,2013-06-24 09:41:00,
2013-06-24 02:46:00,66.4,50.2,29.39,South,172,0.0,0.0,56,0.00,,-RA,0.00,VWS V14.01,2013-06-24 09:46:00,
2013-06-24 02:52:00,66.4,50.2,29.39,South,172,0.0,0.0,56,0.00,,-RA,0.00,VWS V14.01,2013-06-24 09:52:00,
2013-06-24 02:57:00,66.4,50.2,29.39,South,172,0.0,0.0,56,0.00,,-RA,0.00,VWS V14.01,2013-06-24 09:57:00,
2013-06-24 03:02:00,66.4,50.2,29.38,South,172,0.0,0.0,56,0.00,,-RA,0.00,VWS V14.01,2013-06-24 10:02:00,
2013-06-24 03:07:00,66.4,50.2,29.38,South,172,0.0,0.0,56,0.00,,-RA,0.00,VWS V14.01,2013-06-24 10:07:00,
2013-06-24 03:12:00,66.4,50.2,29.38,South,172,0.0,0.0,56,0.00,,-RA,0.00,VWS V14.01,2013-06-24 10:12:00,
2013-06-24 03:17:00,66.4,50.2,29.38,South,172,0.0,0.0,56,0.00,,-RA,0.00,VWS V14.01,2013-06-24 10:17:00,
2013-06-24 03:23:00,66.4,50.2,29.38,South,172,0.0,0.0,56,0.00,,-RA,0.00,VWS V14.01,2013-06-24 10:23:00,
2013-06-24 03:28:00,66.4,50.2,29.38,South,172,0.0,0.0,56,0.00,,-RA,0.00,VWS V14.01,2013-06-24 10:28:00,
2013-06-24 03:33:00,66.4,50.2,29.38,South,172,0.0,0.0,56,0.00,,-RA,0.00,VWS V14.01,2013-06-24 10:33:00,
2013-06-24 03:38:00,66.4,50.2,29.38,South,172,0.0,0.0,56,0.00,,OVC085,0.00,VWS V14.01,2013-06-24 10:38:00,
2013-06-24 03:44:00,66.4,50.2,29.39,South,172,0.0,0.0,56,0.00,,OVC085,0.00,VWS V14.01,2013-06-24 10:44:00,
2013-06-24 03:49:00,66.4,50.2,29.39,South,172,0.0,0.0,56,0.00,,OVC085,0.00,VWS V14.01,2013-06-24 10:49:00,
2013-06-24 03:54:00,66.4,50.2,29.39,South,172,0.0,0.0,56,0.00,,OVC085,0.00,VWS V14.01,2013-06-24 10:54:00,
2013-06-24 03:59:00,66.4,50.2,29.39,South,172,0.0,0.0,56,0.00,,OVC085,0.00,VWS V14.01,2013-06-24 10:59:00,
2013-06-24 04:04:00,66.4,50.2,29.39,South,172,0.0,0.0,56,0.00,,OVC085,0.00,VWS V14.01,2013-06-24 11:04:00,
2013-06-24 04:09:00,66.4,50.2,29.39,South,172,0.0,0.0,56,0.00,,OVC085,0.00,VWS V14.01,2013-06-24 11:09:00,
2013-06-24 04:14:00,66.4,50.2,29.41,South,172,0.0,0.0,56,0.00,,OVC085,0.00,VWS V14.01,2013-06-24 11:14:00,
2013-06-24 04:19:00,66.4,50.2,29.41,South,172,0.0,0.0,56,0.00,,OVC085,0.00,VWS V14.01,2013-06-24 11:19:00,
2013-06-24 04:24:00,66.4,50.2,29.41,South,172,0.0,0.0,56,0.00,,OVC085,0.00,VWS V14.01,2013-06-24 11:24:00,
2013-06-24 04:29:00,66.4,50.2,29.41,South,172,0.0,0.0,56,0.00,,OVC085,0.00,VWS V14.01,2013-06-24 11:29:00,
2013-06-24 04:34:00,66.4,50.2,29.41,South,172,0.0,0.0,56,0.00,,OVC085,0.00,VWS V14.01,2013-06-24 11:34:00,
2013-06-24 04:40:00,66.4,50.2,29.41,South,172,0.0,0.0,56,0.00,,-RA,0.00,VWS V14.01,2013-06-24 11:40:00,
2013-06-24 04:45:00,56.6,52.5,29.44,West,261,2.0,7.0,86,0.01,,-RA,0.01,VWS V14.01,2013-06-24 11:45:00,
2013-06-24 04:50:00,56.5,52.7,29.44,NNW,344,0.0,7.0,87,0.01,,-RA,0.01,VWS V14.01,2013-06-24 11:50:00,
2013-06-24 04:55:00,56.2,52.7,29.44,WSW,257,1.0,7.0,88,0.02,,-RA,0.02,VWS V14.01,2013-06-24 11:55:00,
2013-06-24 05:00:00,56.0,52.8,29.46,WSW,257,0.0,0.0,89,0.02,,-RA,0.02,VWS V14.01,2013-06-24 12:00:00,
2013-06-24 05:05:00,55.9,52.7,29.46,WSW,257,0.0,2.0,89,0.03,,-RA,0.03,VWS V14.01,2013-06-24 12:05:00,
2013-06-24 05:10:00,55.9,53.0,29.46,WSW,257,0.0,2.0,90,0.04,,-RA,0.04,VWS V14.01,2013-06-24 12:10:00,
2013-06-24 05:15:00,55.7,52.8,29.46,WSW,257,0.0,0.0,90,0.05,,-RA,0.05,VWS V14.01,2013-06-24 12:15:00,
2013-06-24 05:21:00,55.7,53.1,29.46,WSW,257,0.0,0.0,91,0.07,,-RA,0.07,VWS V14.01,2013-06-24 12:21:00,
2013-06-24 05:26:00,55.7,53.1,29.46,WSW,257,0.0,0.0,91,0.07,,-RA,0.07,VWS V14.01,2013-06-24 12:26:00,
2013-06-24 05:31:00,55.7,53.1,29.45,WSW,257,0.0,0.0,91,0.08,,-RA,0.08,VWS V14.01,2013-06-24 12:31:00,
2013-06-24 05:36:00,55.6,53.0,29.45,WSW,257,0.0,0.0,91,0.08,,RA,0.08,VWS V14.01,2013-06-24 12:36:00,
2013-06-24 05:41:00,55.6,53.0,29.45,WSW,257,0.0,0.0,91,0.09,,RA,0.09,VWS V14.01,2013-06-24 12:41:00,
2013-06-24 05:46:00,55.6,53.3,29.45,WSW,257,0.0,0.0,92,0.08,,RA,0.09,VWS V14.01,2013-06-24 12:46:00,
2013-06-24 05:51:00,55.6,53.3,29.45,WSW,257,0.0,0.0,92,0.09,,RA,0.10,VWS V14.01,2013-06-24 12:51:00,
2013-06-24 05:57:00,55.6,53.3,29.45,WSW,257,0.0,0.0,92,0.09,,RA,0.10,VWS V14.01,2013-06-24 12:57:00,
2013-06-24 06:02:00,55.6,53.3,29.45,WSW,257,0.0,0.0,92,0.08,,RA,0.10,VWS V14.01,2013-06-24 13:02:00,
2013-06-24 06:07:00,55.6,53.3,29.45,WSW,257,0.0,0.0,92,0.08,,RA,0.10,VWS V14.01,2013-06-24 13:07:00,
2013-06-24 06:12:00,55.6,53.3,29.45,WSW,257,0.0,0.0,92,0.08,,RA,0.10,VWS V14.01,2013-06-24 13:12:00,
2013-06-24 06:17:00,55.6,53.3,29.45,WSW,257,0.0,0.0,92,0.05,,RA,0.10,VWS V14.01,2013-06-24 13:17:00,
2013-06-24 06:23:00,55.6,53.3,29.45,WSW,257,0.0,0.0,92,0.05,,RA,0.10,VWS V14.01,2013-06-24 13:23:00,
2013-06-24 06:28:00,55.4,53.1,29.46,WSW,257,0.0,0.0,92,0.05,,RA,0.10,VWS V14.01,2013-06-24 13:28:00,
2013-06-24 06:34:00,55.6,53.3,29.46,WSW,257,0.0,0.0,92,0.02,,RA,0.10,VWS V14.01,2013-06-24 13:34:00,
2013-06-24 06:39:00,55.6,53.3,29.46,WSW,257,0.0,0.0,92,0.02,,OVC080,0.10,VWS V14.01,2013-06-24 13:39:00,
2013-06-24 06:44:00,55.6,53.3,29.45,WSW,257,0.0,0.0,92,0.01,,OVC080,0.10,VWS V14.01,2013-06-24 13:44:00,
2013-06-24 06:49:00,55.6,53.3,29.45,WSW,257,0.0,0.0,92,0.01,,OVC080,0.10,VWS V14.01,2013-06-24 13:49:00,
2013-06-24 06:55:00,55.6,53.3,29.45,WSW,257,0.0,0.0,92,0.01,,OVC080,0.10,VWS V14.01,2013-06-24 13:55:00,
2013-06-24 07:00:00,55.7,53.7,29.45,WSW,257,0.0,0.0,93,0.00,,OVC080,0.10,VWS V14.01,2013-06-24 14:00:00,
2013-06-24 07:05:00,55.7,53.7,29.45,WSW,257,0.0,0.0,93,0.00,,OVC080,0.10,VWS V14.01,2013-06-24 14:05:00,
2013-06-24 07:10:00,55.7,53.7,29.45,WSW,257,0.0,0.0,93,0.00,,OVC080,0.10,VWS V14.01,2013-06-24 14:10:00,
2013-06-24 07:15:00,55.7,53.7,29.49,WSW,257,0.0,0.0,93,0.00,,OVC080,0.10,VWS V14.01,2013-06-24 14:15:00,
2013-06-24 07:20:00,55.9,53.9,29.49,WSW,258,0.0,0.0,93,0.00,,OVC080,0.10,VWS V14.01,2013-06-24 14:20:00,
2013-06-24 07:26:00,55.9,53.6,29.49,WSW,257,0.0,0.0,92,0.00,,OVC080,0.10,VWS V14.01,2013-06-24 14:26:00,
2013-06-24 07:31:00,56.0,53.7,29.49,WSW,257,0.0,0.0,92,0.00,,OVC080,0.10,VWS V14.01,2013-06-24 14:31:00,
2013-06-24 07:36:00,56.0,53.7,29.49,WSW,257,0.0,0.0,92,0.00,,OVC080,0.10,VWS V14.01,2013-06-24 14:36:00,
2013-06-24 07:42:00,56.0,53.7,29.49,WSW,258,0.0,0.0,92,0.00,,OVC080,0.10,VWS V14.01,2013-06-24 14:42:00,
2013-06-24 07:47:00,56.0,53.7,29.49,WSW,257,0.0,0.0,92,0.00,,OVC080,0.10,VWS V14.01,2013-06-24 14:47:00,
2013-06-24 07:52:00,56.5,54.5,29.49,WSW,257,0.0,0.0,93,0.00,,OVC040,0.10,VWS V14.01,2013-06-24 14:52:00,
2013-06-24 07:57:00,56.5,54.2,29.49,WSW,257,0.0,0.0,92,0.00,,OVC040,0.10,VWS V14.01,2013-06-24 14:57:00,
2013-06-24 08:02:00,56.6,54.3,29.48,WSW,257,0.0,2.0,92,0.00,,OVC040,0.10,VWS V14.01,2013-06-24 15:02:00,
2013-06-24 08:07:00,56.5,54.2,29.48,WSW,257,0.0,2.0,92,0.00,,OVC080,0.10,VWS V14.01,2013-06-24 15:07:00,
2013-06-24 08:12:00,56.6,54.3,29.48,WSW,257,0.0,2.0,92,0.00,,OVC040,0.10,VWS V14.01,2013-06-24 15:12:00,
2013-06-24 08:17:00,56.6,54.3,29.46,WSW,257,0.0,0.0,92,0.00,,OVC040,0.10,VWS V14.01,2013-06-24 15:17:00,
2013-06-24 08:22:00,56.9,54.6,29.46,WSW,257,0.0,0.0,92,0.00,,OVC040,0.10,VWS V14.01,2013-06-24 15:22:00,
2013-06-24 08:27:00,57.2,54.9,29.46,ESE,119,0.0,0.0,92,0.00,,OVC040,0.10,VWS V14.01,2013-06-24 15:27:00,
2013-06-24 08:32:00,57.0,54.7,29.46,SE,130,0.0,0.0,92,0.00,,OVC040,0.10,VWS V14.01,2013-06-24 15:32:00,
2013-06-24 08:37:00,56.9,54.3,29.46,SE,130,0.0,2.0,91,0.00,,,0.10,VWS V14.01,2013-06-24 15:37:00,
2013-06-24 08:42:00,56.9,54.3,29.46,SE,130,0.0,2.0,91,0.00,,,0.10,VWS V14.01,2013-06-24 15:42:00,
2013-06-24 08:48:00,56.9,54.0,29.47,SE,130,0.0,1.0,90,0.00,,,0.10,VWS V14.01,2013-06-24 15:48:00,
2013-06-24 08:53:00,57.0,54.4,29.47,SE,130,0.0,1.0,91,0.00,,,0.10,VWS V14.01,2013-06-24 15:53:00,
2013-06-24 08:58:00,56.9,54.0,29.47,SE,130,0.0,1.0,90,0.00,,,0.10,VWS V14.01,2013-06-24 15:58:00,
2013-06-24 09:03:00,57.0,54.4,29.47,SE,130,0.0,0.0,91,0.00,,,0.10,VWS V14.01,2013-06-24 16:03:00,
2013-06-24 09:08:00,57.0,54.1,29.47,ESE,107,0.0,3.0,90,0.00,,,0.10,VWS V14.01,2013-06-24 16:08:00,
2013-06-24 09:13:00,57.2,54.3,29.47,SSW,195,0.0,3.0,90,0.00,,,0.10,VWS V14.01,2013-06-24 16:13:00,
2013-06-24 09:18:00,57.2,54.3,29.47,SSW,195,0.0,0.0,90,0.00,,,0.10,VWS V14.01,2013-06-24 16:18:00,
2013-06-24 09:23:00,57.3,54.4,29.47,SSW,195,0.0,2.0,90,0.00,,,0.10,VWS V14.01,2013-06-24 16:23:00,
2013-06-24 09:29:00,57.6,54.7,29.47,SSW,195,0.0,2.0,90,0.00,,,0.10,VWS V14.01,2013-06-24 16:29:00,
2013-06-24 09:34:00,58.0,55.1,29.47,SSW,195,0.0,0.0,90,0.00,,,0.10,VWS V14.01,2013-06-24 16:34:00,
2013-06-24 09:39:00,58.0,54.8,29.47,SSW,195,0.0,0.0,89,0.00,,OVC021,0.10,VWS V14.01,2013-06-24 16:39:00,
2013-06-24 09:44:00,58.1,54.9,29.47,SSW,195,0.0,0.0,89,0.00,,OVC021,0.10,VWS V14.01,2013-06-24 16:44:00,
2013-06-24 09:49:00,58.3,55.1,29.47,SSW,195,0.0,0.0,89,0.00,,OVC021,0.10,VWS V14.01,2013-06-24 16:49:00,
2013-06-24 09:55:00,58.3,54.8,29.47,SSW,195,0.0,5.0,88,0.00,,OVC021,0.10,VWS V14.01,2013-06-24 16:55:00,
2013-06-24 10:00:00,58.3,54.5,29.47,South,191,1.0,3.0,87,0.00,,OVC021,0.10,VWS V14.01,2013-06-24 17:00:00,
2013-06-24 10:05:00,58.3,54.5,29.47,SSE,161,0.0,3.0,87,0.00,,OVC021,0.10,VWS V14.01,2013-06-24 17:05:00,
2013-06-24 10:10:00,58.4,54.5,29.47,SSE,161,0.0,3.0,87,0.00,,OVC021,0.10,VWS V14.01,2013-06-24 17:10:00,
2013-06-24 10:15:00,58.6,54.4,29.49,SW,216,0.0,2.0,86,0.00,,OVC021,0.10,VWS V14.01,2013-06-24 17:15:00,
2013-06-24 10:20:00,59.0,54.8,29.49,SSW,192,0.0,5.0,86,0.00,,OVC021,0.10,VWS V14.01,2013-06-24 17:20:00,
2013-06-24 10:25:00,59.2,54.4,29.49,South,174,2.0,6.0,84,0.00,,OVC021,0.10,VWS V14.01,2013-06-24 17:25:00,
2013-06-24 10:30:00,59.5,54.3,29.49,SSE,150,0.0,2.0,83,0.00,,OVC021,0.10,VWS V14.01,2013-06-24 17:30:00,
2013-06-24 10:35:00,59.8,54.6,29.49,SSE,151,0.0,2.0,83,0.00,,OVC049,0.10,VWS V14.01,2013-06-24 17:35:00,
2013-06-24 10:40:00,59.6,53.8,29.49,SSE,154,0.0,2.0,81,0.00,,OVC049,0.10,VWS V14.01,2013-06-24 17:40:00,
2013-06-24 10:46:00,59.9,54.7,29.48,SSE,154,0.0,0.0,83,0.00,,OVC049,0.10,VWS V14.01,2013-06-24 17:46:00,
2013-06-24 10:51:00,60.5,55.7,29.48,SSE,152,0.0,2.0,84,0.00,,OVC049,0.10,VWS V14.01,2013-06-24 17:51:00,
2013-06-24 10:56:00,60.5,54.7,29.48,South,186,0.0,3.0,81,0.00,,OVC049,0.10,VWS V14.01,2013-06-24 17:56:00,
2013-06-24 11:01:00,60.7,54.8,29.48,South,186,0.0,3.0,81,0.00,,OVC049,0.10,VWS V14.01,2013-06-24 18:01:00,
2013-06-24 11:06:00,61.0,55.8,29.48,South,186,0.0,3.0,83,0.00,,OVC049,0.10,VWS V14.01,2013-06-24 18:06:00,
2013-06-24 11:11:00,61.3,55.8,29.48,South,185,0.0,3.0,82,0.00,,OVC049,0.10,VWS V14.01,2013-06-24 18:11:00,
2013-06-24 11:16:00,61.2,55.0,29.48,SSE,161,0.0,6.0,80,0.00,,OVC049,0.10,VWS V14.01,2013-06-24 18:16:00,
2013-06-24 11:22:00,61.3,54.7,29.48,SSE,155,0.0,6.0,79,0.00,,OVC049,0.10,VWS V14.01,2013-06-24 18:22:00,
2013-06-24 11:27:00,61.6,55.0,29.48,SSE,155,0.0,6.0,79,0.00,,OVC049,0.10,VWS V14.01,2013-06-24 18:27:00,
2013-06-24 11:33:00,62.1,55.2,29.47,SSE,162,2.0,4.0,78,0.00,,OVC049,0.10,VWS V14.01,2013-06-24 18:33:00,
2013-06-24 11:38:00,62.1,54.5,29.47,SSE,161,2.0,4.0,76,0.00,,BKN044,0.10,VWS V14.01,2013-06-24 18:38:00,
2013-06-24 11:43:00,62.4,54.8,29.47,SSE,168,0.0,4.0,76,0.00,,BKN044,0.10,VWS V14.01,2013-06-24 18:43:00,
2013-06-24 11:48:00,62.1,53.7,29.47,SSE,147,2.0,5.0,74,0.00,,BKN044,0.10,VWS V14.01,2013-06-24 18:48:00,
2013-06-24 11:53:00,61.8,53.8,29.47,South,174,2.0,5.0,75,0.00,,BKN044,0.10,VWS V14.01,2013-06-24 18:53:00,
2013-06-24 11:58:00,61.8,53.8,29.47,South,171,2.0,5.0,75,0.00,,BKN044,0.10,VWS V14.01,2013-06-24 18:58:00,
2013-06-24 12:03:00,62.1,54.8,29.47,SSE,157,0.0,5.0,77,0.00,,BKN044,0.10,VWS V14.01,2013-06-24 19:03:00,
2013-06-24 12:08:00,62.0,54.7,29.47,South,184,2.0,5.0,77,0.00,,BKN044,0.10,VWS V14.01,2013-06-24 19:08:00,
2013-06-24 12:13:00,61.6,54.3,29.47,SSE,154,2.0,5.0,77,0.00,,BKN044,0.10,VWS V14.01,2013-06-24 19:13:00,
2013-06-24 12:19:00,61.0,54.5,29.47,SSE,150,3.0,7.0,79,0.00,,BKN044,0.10,VWS V14.01,2013-06-24 19:19:00,
2013-06-24 12:24:00,61.0,54.5,29.47,South,181,0.0,7.0,79,0.00,,BKN044,0.10,VWS V14.01,2013-06-24 19:24:00,
2013-06-24 12:29:00,61.2,55.0,29.48,SE,141,2.0,2.0,80,0.00,,BKN044,0.10,VWS V14.01,2013-06-24 19:29:00,
2013-06-24 12:34:00,61.0,54.5,29.48,SSW,199,5.0,7.0,79,0.00,,BKN044,0.10,VWS V14.01,2013-06-24 19:34:00,
2013-06-24 12:39:00,60.4,53.9,29.48,South,188,3.0,11.0,79,0.00,,OVC100,0.10,VWS V14.01,2013-06-24 19:39:00,
2013-06-24 12:44:00,59.6,53.8,29.49,South,182,0.0,0.0,81,0.00,,OVC100,0.10,VWS V14.01,2013-06-24 19:44:00,
2013-06-24 12:49:00,58.9,54.7,29.49,South,169,1.0,10.0,86,0.01,,OVC100,0.11,VWS V14.01,2013-06-24 19:49:00,
2013-06-24 12:55:00,58.4,54.9,29.49,SSW,192,0.0,10.0,88,0.02,,OVC100,0.12,VWS V14.01,2013-06-24 19:55:00,
2013-06-24 13:00:00,58.3,55.1,29.50,South,189,1.0,5.0,89,0.02,,OVC100,0.12,VWS V14.01,2013-06-24 20:00:00,
2013-06-24 13:05:00,58.4,55.5,29.50,South,182,0.0,5.0,90,0.02,,OVC100,0.12,VWS V14.01,2013-06-24 20:05:00,
2013-06-24 13:10:00,58.3,55.4,29.50,SSE,148,0.0,6.0,90,0.03,,OVC100,0.13,VWS V14.01,2013-06-24 20:10:00,
2013-06-24 13:15:00,58.4,55.8,29.50,SSW,200,1.0,5.0,91,0.03,,OVC100,0.13,VWS V14.01,2013-06-24 20:15:00,
2013-06-24 13:20:00,58.4,55.8,29.50,WSW,258,1.0,5.0,91,0.03,,OVC100,0.13,VWS V14.01,2013-06-24 20:20:00,
2013-06-24 13:25:00,57.8,54.9,29.50,South,186,3.0,12.0,90,0.04,,OVC100,0.14,VWS V14.01,2013-06-24 20:25:00,
2013-06-24 13:31:00,57.8,55.2,29.51,SW,215,0.0,2.0,91,0.04,,OVC100,0.14,VWS V14.01,2013-06-24 20:31:00,
2013-06-24 13:36:00,57.8,55.2,29.51,South,179,0.0,3.0,91,0.04,,-RA,0.14,VWS V14.01,2013-06-24 20:36:00,
2013-06-24 13:41:00,57.8,55.2,29.51,SSW,198,2.0,6.0,91,0.05,,-RA,0.15,VWS V14.01,2013-06-24 20:41:00,
2013-06-24 13:46:00,58.0,55.7,29.51,South,172,0.0,4.0,92,0.05,,-RA,0.15,VWS V14.01,2013-06-24 20:46:00,
2013-06-24 13:52:00,58.1,55.8,29.51,SSW,193,7.0,8.0,92,0.05,,-RA,0.15,VWS V14.01,2013-06-24 20:52:00,
2013-06-24 13:57:00,58.0,55.4,29.51,SSW,208,7.0,8.0,91,0.05,,-RA,0.15,VWS V14.01,2013-06-24 20:57:00,
2013-06-24 14:02:00,57.8,55.2,29.51,South,179,2.0,7.0,91,0.03,,-RA,0.15,VWS V14.01,2013-06-24 21:02:00,
2013-06-24 14:07:00,58.0,55.4,29.51,South,174,0.0,7.0,91,0.04,,-RA,0.16,VWS V14.01,2013-06-24 21:07:00,
2013-06-24 14:12:00,58.1,55.5,29.51,South,186,0.0,7.0,91,0.04,,-RA,0.16,VWS V14.01,2013-06-24 21:12:00,
2013-06-24 14:17:00,58.0,55.4,29.51,South,169,0.0,5.0,91,0.03,,-RA,0.16,VWS V14.01,2013-06-24 21:17:00,
2013-06-24 14:22:00,58.4,56.1,29.51,South,169,0.0,5.0,92,0.03,,-RA,0.16,VWS V14.01,2013-06-24 21:22:00,
2013-06-24 14:27:00,58.4,55.8,29.51,SW,229,0.0,5.0,91,0.03,,-RA,0.16,VWS V14.01,2013-06-24 21:27:00,
2013-06-24 14:32:00,58.7,56.1,29.50,WSW,244,0.0,0.0,91,0.02,,-RA,0.16,VWS V14.01,2013-06-24 21:32:00,
2013-06-24 14:37:00,58.6,55.4,29.50,South,174,0.0,4.0,89,0.02,,-RA,0.16,VWS V14.01,2013-06-24 21:37:00,
2013-06-24 14:42:00,58.9,56.0,29.50,South,176,0.0,4.0,90,0.02,,-RA,0.16,VWS V14.01,2013-06-24 21:42:00,
2013-06-24 14:47:00,59.2,56.3,29.50,South,176,0.0,0.0,90,0.01,,-RA,0.16,VWS V14.01,2013-06-24 21:47:00,
2013-06-24 14:53:00,59.2,54.7,29.50,WSW,258,0.0,4.0,85,0.01,,-RA,0.16,VWS V14.01,2013-06-24 21:53:00,
2013-06-24 14:58:00,59.0,53.8,29.50,WSW,258,0.0,4.0,83,0.01,,-RA,0.16,VWS V14.01,2013-06-24 21:58:00,
2013-06-24 15:03:00,59.2,52.7,29.50,West,268,0.0,5.0,79,0.01,,-RA,0.16,VWS V14.01,2013-06-24 22:03:00,
2013-06-24 15:08:00,59.8,54.0,29.50,West,271,0.0,5.0,81,0.01,,-RA,0.16,VWS V14.01,2013-06-24 22:08:00,
2013-06-24 15:13:00,60.4,54.9,29.50,West,271,0.0,5.0,82,0.01,,-RA,0.16,VWS V14.01,2013-06-24 22:13:00,
2013-06-24 15:18:00,60.7,54.5,29.50,West,271,0.0,0.0,80,0.00,,-RA,0.16,VWS V14.01,2013-06-24 22:18:00,
2013-06-24 15:23:00,61.0,53.4,29.50,West,271,1.0,5.0,76,0.00,,-RA,0.16,VWS V14.01,2013-06-24 22:23:00,
2013-06-24 15:28:00,61.2,54.6,29.50,SSE,154,3.0,7.0,79,0.00,,-RA,0.16,VWS V14.01,2013-06-24 22:28:00,
2013-06-24 15:33:00,61.2,53.2,29.50,SSE,155,0.0,3.0,75,0.00,,-RA,0.16,VWS V14.01,2013-06-24 22:33:00,
2013-06-24 15:38:00,61.3,52.6,29.50,SW,233,0.0,3.0,73,0.00,,OVC070,0.16,VWS V14.01,2013-06-24 22:38:00,
2013-06-24 15:43:00,61.5,52.4,29.50,WSW,253,0.0,3.0,72,0.00,,OVC070,0.16,VWS V14.01,2013-06-24 22:43:00,
2013-06-24 15:48:00,61.8,54.2,29.50,SSW,208,0.0,0.0,76,0.00,,OVC070,0.16,VWS V14.01,2013-06-24 22:48:00,
2013-06-24 15:53:00,62.1,54.1,29.50,West,272,0.0,3.0,75,0.00,,OVC070,0.16,VWS V14.01,2013-06-24 22:53:00,
2013-06-24 15:58:00,62.1,54.8,29.50,West,272,0.0,3.0,77,0.00,,OVC070,0.16,VWS V14.01,2013-06-24 22:58:00,
2013-06-24 16:04:00,62.4,54.8,29.50,West,275,0.0,2.0,76,0.00,,OVC070,0.16,VWS V14.01,2013-06-24 23:04:00,
2013-06-24 16:09:00,62.4,54.0,29.50,West,260,0.0,2.0,74,0.00,,OVC070,0.16,VWS V14.01,2013-06-24 23:09:00,
2013-06-24 16:14:00,62.4,54.4,29.51,West,260,0.0,2.0,75,0.00,,OVC070,0.16,VWS V14.01,2013-06-24 23:14:00,
2013-06-24 16:19:00,62.1,54.5,29.51,WSW,247,0.0,7.0,76,0.00,,OVC070,0.16,VWS V14.01,2013-06-24 23:19:00,
2013-06-24 16:24:00,62.1,53.7,29.51,SSE,152,2.0,7.0,74,0.00,,OVC070,0.16,VWS V14.01,2013-06-24 23:24:00,
2013-06-24 16:30:00,62.1,54.1,29.52,SSE,168,2.0,3.0,75,0.00,,OVC070,0.16,VWS V14.01,2013-06-24 23:30:00,
2013-06-24 16:35:00,62.0,53.6,29.52,ESE,123,0.0,5.0,74,0.00,,OVC070,0.16,VWS V14.01,2013-06-24 23:35:00,
2013-06-24 16:41:00,62.1,53.3,29.52,West,264,0.0,5.0,73,0.00,,OVC070,0.16,VWS V14.01,2013-06-24 23:41:00,
2013-06-24 16:46:00,62.1,52.2,29.52,SSE,154,0.0,0.0,70,0.00,,OVC070,0.16,VWS V14.01,2013-06-24 23:46:00,
2013-06-24 16:51:00,62.3,52.4,29.52,WSW,241,0.0,1.0,70,0.00,,OVC070,0.16,VWS V14.01,2013-06-24 23:51:00,
2013-06-24 16:56:00,62.1,51.8,29.52,SSW,196,0.0,6.0,69,0.00,,OVC070,0.16,VWS V14.01,2013-06-24 23:56:00,
2013-06-24 17:01:00,62.0,51.7,29.52,SSW,208,0.0,4.0,69,0.00,,OVC070,0.16,VWS V14.01,2013-06-25 00:01:00,
2013-06-24 17:06:00,61.8,51.5,29.52,SSE,168,0.0,4.0,69,0.00,,OVC085,0.16,VWS V14.01,2013-06-25 00:06:00,
2013-06-24 17:11:00,61.6,51.3,29.52,SSE,164,0.0,5.0,69,0.00,,OVC085,0.16,VWS V14.01,2013-06-25 00:11:00,
2013-06-24 17:16:00,61.5,51.6,29.52,SSW,203,0.0,6.0,70,0.00,,OVC085,0.16,VWS V14.01,2013-06-25 00:16:00,
2013-06-24 17:22:00,61.5,52.4,29.52,SE,134,1.0,6.0,72,0.00,,OVC085,0.16,VWS V14.01,2013-06-25 00:22:00,
2013-06-24 17:27:00,61.2,52.1,29.52,SE,134,0.0,6.0,72,0.00,,OVC085,0.16,VWS V14.01,2013-06-25 00:27:00,
2013-06-24 17:32:00,61.0,52.3,29.52,SE,134,0.0,0.0,73,0.00,,OVC085,0.16,VWS V14.01,2013-06-25 00:32:00,
2013-06-24 17:37:00,60.9,52.9,29.52,SE,134,0.0,0.0,75,0.00,,OVC085,0.16,VWS V14.01,2013-06-25 00:37:00,
2013-06-24 17:42:00,60.7,52.4,29.52,SE,134,0.0,4.0,74,0.00,,OVC085,0.16,VWS V14.01,2013-06-25 00:42:00,
2013-06-24 17:47:00,60.5,52.9,29.51,SE,134,0.0,0.0,76,0.00,,OVC085,0.16,VWS V14.01,2013-06-25 00:47:00,
2013-06-24 17:52:00,60.5,52.5,29.51,SE,134,0.0,0.0,75,0.00,,OVC085,0.16,VWS V14.01,2013-06-25 00:52:00,
2013-06-24 17:57:00,60.4,52.8,29.51,SE,134,0.0,0.0,76,0.00,,OVC085,0.16,VWS V14.01,2013-06-25 00:57:00,
2013-06-24 18:02:00,60.4,53.5,29.51,SE,134,0.0,0.0,78,0.00,,OVC085,0.16,VWS V14.01,2013-06-25 01:02:00,
2013-06-24 18:07:00,60.1,53.6,29.51,SE,134,0.0,2.0,79,0.00,,OVC085,0.16,VWS V14.01,2013-06-25 01:07:00,
2013-06-24 18:12:00,59.9,53.4,29.51,SE,134,1.0,3.0,79,0.00,,OVC085,0.16,VWS V14.01,2013-06-25 01:12:00,
2013-06-24 18:17:00,59.9,53.7,29.52,SE,134,0.0,2.0,80,0.00,,OVC085,0.16,VWS V14.01,2013-06-25 01:17:00,
2013-06-24 18:22:00,59.6,53.4,29.52,SSW,195,0.0,6.0,80,0.00,,OVC085,0.16,VWS V14.01,2013-06-25 01:22:00,
2013-06-24 18:27:00,59.5,53.7,29.52,South,191,0.0,6.0,81,0.00,,OVC085,0.16,VWS V14.01,2013-06-25 01:27:00,
2013-06-24 18:33:00,59.3,53.8,29.52,South,189,0.0,2.0,82,0.00,,OVC085,0.16,VWS V14.01,2013-06-25 01:33:00,
2013-06-24 18:38:00,59.2,53.7,29.52,South,179,0.0,6.0,82,0.00,,-RA,0.16,VWS V14.01,2013-06-25 01:38:00,
2013-06-24 18:43:00,59.0,53.5,29.52,SE,131,3.0,6.0,82,0.01,,-RA,0.17,VWS V14.01,2013-06-25 01:43:00,
2013-06-24 18:49:00,59.0,54.2,29.53,South,182,4.0,4.0,84,0.01,,-RA,0.17,VWS V14.01,2013-06-25 01:49:00,
2013-06-24 18:54:00,58.9,54.1,29.53,SSE,168,5.0,6.0,84,0.01,,-RA,0.17,VWS V14.01,2013-06-25 01:54:00,
2013-06-24 18:59:00,58.9,53.8,29.53,SSE,165,0.0,6.0,83,0.01,,-RA,0.17,VWS V14.01,2013-06-25 01:59:00,
2013-06-24 19:04:00,58.9,54.1,29.53,South,174,0.0,7.0,84,0.01,,-RA,0.17,VWS V14.01,2013-06-25 02:04:00,
2013-06-24 19:09:00,58.9,54.1,29.53,South,188,0.0,7.0,84,0.01,,-RA,0.17,VWS V14.01,2013-06-25 02:09:00,
2013-06-24 19:14:00,58.7,54.2,29.52,SSW,193,3.0,4.0,85,0.01,,-RA,0.17,VWS V14.01,2013-06-25 02:14:00,
2013-06-24 19:19:00,58.7,54.5,29.52,South,174,3.0,5.0,86,0.01,,-RA,0.17,VWS V14.01,2013-06-25 02:19:00,
2013-06-24 19:24:00,58.6,54.4,29.52,South,172,0.0,5.0,86,0.01,,-RA,0.17,VWS V14.01,2013-06-25 02:24:00,
2013-06-24 19:29:00,58.6,54.8,29.53,South,191,6.0,6.0,87,0.01,,-RA,0.17,VWS V14.01,2013-06-25 02:29:00,
2013-06-24 19:35:00,58.4,54.5,29.53,South,184,2.0,6.0,87,0.01,,-RA,0.17,VWS V14.01,2013-06-25 02:35:00,
2013-06-24 19:40:00,58.4,54.9,29.53,SW,227,2.0,6.0,88,0.01,,-RA,0.17,VWS V14.01,2013-06-25 02:40:00,
2013-06-24 19:45:00,58.0,53.8,29.54,West,268,0.0,5.0,86,0.00,,-RA,0.17,VWS V14.01,2013-06-25 02:45:00,
2013-06-24 19:50:00,57.6,53.8,29.54,West,272,0.0,5.0,87,0.00,,-RA,0.17,VWS V14.01,2013-06-25 02:50:00,
2013-06-24 19:55:00,57.5,54.0,29.54,SSE,155,0.0,5.0,88,0.01,,-RA,0.18,VWS V14.01,2013-06-25 02:55:00,
2013-06-24 20:00:00,57.3,54.1,29.54,SSW,196,0.0,1.0,89,0.01,,-RA,0.18,VWS V14.01,2013-06-25 03:00:00,
2013-06-24 20:05:00,57.2,54.0,29.54,South,172,0.0,3.0,89,0.01,,-RA,0.18,VWS V14.01,2013-06-25 03:05:00,
2013-06-24 20:10:00,57.0,54.1,29.54,South,184,0.0,4.0,90,0.01,,-RA,0.18,VWS V14.01,2013-06-25 03:10:00,
2013-06-24 20:15:00,56.9,54.0,29.55,South,179,2.0,2.0,90,0.01,,-RA,0.18,VWS V14.01,2013-06-25 03:15:00,
2013-06-24 20:21:00,56.7,53.8,29.55,South,179,0.0,5.0,90,0.01,,-RA,0.18,VWS V14.01,2013-06-25 03:21:00,
2013-06-24 20:26:00,56.6,54.0,29.55,South,179,0.0,5.0,91,0.01,,-RA,0.18,VWS V14.01,2013-06-25 03:26:00,
2013-06-24 20:31:00,56.5,53.9,29.55,South,179,1.0,3.0,91,0.01,,-RA,0.18,VWS V14.01,2013-06-25 03:31:00,
2013-06-24 20:37:00,56.5,53.9,29.55,South,178,4.0,5.0,91,0.01,,-RA,0.18,VWS V14.01,2013-06-25 03:37:00,
2013-06-24 20:42:00,56.3,53.7,29.55,SSW,196,0.0,6.0,91,0.01,,-RA,0.18,VWS V14.01,2013-06-25 03:42:00,
2013-06-24 20:47:00,56.3,53.7,29.55,SSE,168,6.0,6.0,91,0.02,,-RA,0.19,VWS V14.01,2013-06-25 03:47:00,
2013-06-24 20:53:00,56.2,53.9,29.55,SSE,167,0.0,6.0,92,0.02,,-RA,0.19,VWS V14.01,2013-06-25 03:53:00,
2013-06-24 20:58:00,56.0,53.7,29.55,SSE,167,0.0,6.0,92,0.02,,-RA,0.19,VWS V14.01,2013-06-25 03:58:00,
2013-06-24 21:01:00,56.0,53.7,29.56,SSE,167,0.0,3.0,92,0.01,,-RA,0.19,VWS V14.01,2013-06-25 04:01:00,
2013-06-24 21:02:00,55.9,53.6,29.56,SSE,167,0.0,4.0,92,0.01,,-RA,0.19,VWS V14.01,2013-06-25 04:02:00,
2013-06-24 21:03:00,55.9,53.6,29.56,SSE,167,0.0,4.0,92,0.01,,-RA,0.19,VWS V14.01,2013-06-25 04:03:00,
2013-06-24 21:08:00,55.9,53.6,29.56,SSE,167,0.0,4.0,92,0.02,,-RA,0.20,VWS V14.01,2013-06-25 04:08:00,
2013-06-24 21:13:00,55.9,53.6,29.56,SSE,168,6.0,6.0,92,0.02,,-RA,0.20,VWS V14.01,2013-06-25 04:13:00,
2013-06-24 21:19:00,55.7,53.4,29.56,SSE,168,1.0,3.0,92,0.02,,-RA,0.20,VWS V14.01,2013-06-25 04:19:00,
2013-06-24 21:24:00,55.6,53.3,29.56,ESE,110,0.0,7.0,92,0.02,,-RA,0.20,VWS V14.01,2013-06-25 04:24:00,
2013-06-24 21:29:00,55.3,53.0,29.57,SW,236,0.0,8.0,92,0.02,,-RA,0.20,VWS V14.01,2013-06-25 04:29:00,
2013-06-24 21:34:00,55.1,52.8,29.57,SW,227,2.0,6.0,92,0.02,,-RA,0.20,VWS V14.01,2013-06-25 04:34:00,
2013-06-24 21:39:00,55.0,52.7,29.57,WSW,253,0.0,6.0,92,0.02,,-RA,0.20,VWS V14.01,2013-06-25 04:39:00,
2013-06-24 21:44:00,55.0,52.7,29.57,SSE,148,2.0,7.0,92,0.02,,-RA,0.20,VWS V14.01,2013-06-25 04:44:00,
2013-06-24 21:49:00,54.8,52.5,29.57,SSE,152,0.0,2.0,92,0.02,,-RA,0.20,VWS V14.01,2013-06-25 04:49:00,
2013-06-24 21:54:00,54.8,52.5,29.57,SSE,152,0.0,2.0,92,0.02,,-RA,0.20,VWS V14.01,2013-06-25 04:54:00,
2013-06-24 21:59:00,54.7,52.4,29.58,SSE,152,0.0,0.0,92,0.01,,-RA,0.20,VWS V14.01,2013-06-25 04:59:00,
2013-06-24 22:04:00,54.7,52.4,29.58,SSE,152,0.0,1.0,92,0.01,,-RA,0.20,VWS V14.01,2013-06-25 05:04:00,
2013-06-24 22:09:00,54.7,52.4,29.58,SSE,152,1.0,2.0,92,0.01,,-RA,0.20,VWS V14.01,2013-06-25 05:09:00,
2013-06-24 22:14:00,54.7,52.4,29.57,SSE,152,1.0,2.0,92,0.00,,-RA,0.20,VWS V14.01,2013-06-25 05:14:00,
2013-06-24 22:19:00,54.7,52.4,29.57,SSE,152,0.0,6.0,92,0.00,,-RA,0.20,VWS V14.01,2013-06-25 05:19:00,
2013-06-24 22:25:00,54.7,52.4,29.57,SSE,167,0.0,6.0,92,0.00,,-RA,0.20,VWS V14.01,2013-06-25 05:25:00,
2013-06-24 22:30:00,54.5,52.5,29.57,SSE,167,0.0,0.0,93,0.01,,-RA,0.21,VWS V14.01,2013-06-25 05:30:00,
2013-06-24 22:35:00,54.5,52.5,29.57,SW,219,0.0,4.0,93,0.01,,-RA,0.21,VWS V14.01,2013-06-25 05:35:00,
2013-06-24 22:40:00,54.4,52.1,29.57,WNW,291,0.0,7.0,92,0.01,,-RA,0.21,VWS V14.01,2013-06-25 05:40:00,
2013-06-24 22:45:00,54.2,52.2,29.58,SSW,192,0.0,0.0,93,0.01,,-RA,0.21,VWS V14.01,2013-06-25 05:45:00,
2013-06-24 22:50:00,54.2,52.2,29.58,SW,232,0.0,4.0,93,0.01,,-RA,0.21,VWS V14.01,2013-06-25 05:50:00,
2013-06-24 22:55:00,54.1,52.1,29.58,SSW,198,1.0,6.0,93,0.02,,-RA,0.22,VWS V14.01,2013-06-25 05:55:00,
2013-06-24 23:00:00,53.9,51.9,29.58,SSW,196,0.0,2.0,93,0.03,,-RA,0.00,VWS V14.01,2013-06-25 06:00:00,
2013-06-24 23:05:00,53.9,51.9,29.58,SSE,160,2.0,2.0,93,0.03,,-RA,0.00,VWS V14.01,2013-06-25 06:05:00,
2013-06-24 23:10:00,53.8,51.8,29.58,South,175,0.0,6.0,93,0.03,,-RA,0.00,VWS V14.01,2013-06-25 06:10:00,
2013-06-24 23:15:00,53.6,51.6,29.58,South,176,0.0,0.0,93,0.03,,-RA,0.00,VWS V14.01,2013-06-25 06:15:00,
2013-06-24 23:21:00,53.6,51.6,29.58,SSE,161,0.0,5.0,93,0.04,,-RA,0.01,VWS V14.01,2013-06-25 06:21:00,
2013-06-24 23:26:00,53.5,51.5,29.58,South,184,0.0,5.0,93,0.04,,-RA,0.01,VWS V14.01,2013-06-25 06:26:00,
2013-06-24 23:31:00,53.3,51.3,29.58,SSE,155,0.0,1.0,93,0.03,,-RA,0.01,VWS V14.01,2013-06-25 06:31:00,
2013-06-24 23:36:00,53.3,51.3,29.58,SSE,167,0.0,5.0,93,0.03,,-RA,0.01,VWS V14.01,2013-06-25 06:36:00,
2013-06-24 23:41:00,53.2,51.2,29.58,SSE,167,1.0,5.0,93,0.03,,-RA,0.01,VWS V14.01,2013-06-25 06:41:00,
2013-06-24 23:46:00,53.1,51.1,29.58,South,176,0.0,3.0,93,0.03,,-RA,0.01,VWS V14.01,2013-06-25 06:46:00,
2013-06-24 23:51:00,53.1,51.1,29.58,South,176,2.0,3.0,93,0.03,,OVC060,0.01,VWS V14.01,2013-06-25 06:51:00,
2013-06-24 23:56:00,53.1,51.1,29.58,South,176,0.0,3.0,93,0.03,,OVC060,0.01,VWS V14.01,2013-06-25 06:56:00,